www.pogodaiklimat.ru

Погода и климат >> Архив погоды >> Китай >> Sanjianfang


ПОГОДА в Sanjianfang

  • Прогноз погоды в Sanjianfang
  • Монитор погоды в Sanjianfang
  • Климат города

АРХИВ ПОГОДЫ в Sanjianfang

Время (UTC), дата Ветер
(напр.,м/с)
 
Видим.   Явления Облачность Т
(С)
Тd
(С)
f
(%)
Тe
(С)
Тes
(С)
Комфортность P
(гПа)
Po
(гПа)
Тmin
(С)
Tmax
(С)
R
(мм)
R24
(мм)
S
(см)
03 8.08 В 4 30 км 3/3 1500 м
[]
+36.0 +3.3 13 +33 +38 жарко 999.3 999.0
06 8.08 Ю 3 30 км 9/9 1500 м
[]
+39.2 +3.4 11 +36 +37 очень
жарко
998.1 1010.1 +27.5
09 8.08 С 3 30 км 8/8 1500 м
[]
+40.6 +3.1 10 +37 +39 очень
жарко
996.3 996.0
12 8.08 С 17
{24}
30 км 9/9 1500 м
[]
+34.2 +8.1 20 +33 +33 жарко 998.0 920.8
18 8.08 С 15
{23}
30 км ?/? +29.7 +9.3 28 +29 +29 жарко 998.5 999.0 +40.6
21 8.08 С 17
{24}
30 км ?/? +29.6 +8.6 27 +29 +29 жарко 997.8 998.0
00 9.08 С 18
{24}
30 км 9/9
[]
+28.7 +9.9 31 +29 +29 жарко 1000.4 1000.0
03 9.08 С 19 30 км 8/8
[]
+31.8 +11.1 28 +32 +32 жарко 1001.3 1001.0
06 9.08 С 17
{25}
30 км 3/3
[]
+34.9 +10.0 22 +34 +34 очень
жарко
1000.2 1000.0 +28.4
09 9.08 С 16 30 км 5/5 1500 м
[]
+36.0 +8.8 19 +34 +34 очень
жарко
998.7 999.0
12 9.08 С 14
{21}
30 км 3/3 1500 м
[]
+35.5 +8.4 19 +34 +34 очень
жарко
998.9 999.0
18 9.08 С 11
{20}
30 км ?/? +31.6 +7.3 22 +30 +30 жарко 1000.3 1000.0 +36.7
21 9.08 С 8 30 км н/о +30.2 +5.5 21 +29 +29 жарко 1000.7 1001.0
00 10.08 С 12
{22}
30 км 9/9 1500 м
[]
+26.5 +11.0 38 +27 +27 жарко 1002.6 1003.0
03 10.08 С 13 30 км 6/6 1500 м
[]
+31.7 +7.4 22 +30 +30 жарко 1002.7 1003.0
06 10.08 С 10
{19}
30 км 1/1 1500 м
[]
+35.6 +5.0 15 +33 +34 жарко 1000.9 1001.0 +26.5
09 10.08 С 9 30 км 6/6 1500 м
[]
+36.5 +3.7 13 +33 +34 жарко 998.4 998.0
12 10.08 С 14 30 км 6/6 1500 м
[]
+35.5 +3.9 14 +33 +33 жарко 998.7 999.0
18 10.08 С 9
{18}
30 км ?/? +29.1 +5.9 23 +28 +28 жарко 1000.2 1000.0 +37.4
21 10.08 С 9 30 км н/о +27.3 +5.6 25 +26 +26 жарко 1000.4 1000.0
00 11.08 СВ 10
{18}
30 км 3/3
[]
+28.6 +7.2 26 +28 +28 жарко 1000.8 1000.8
03 11.08 С 9 30 км 1/1 1500 м
[]
+32.7 +7.5 21 +31 +32 жарко 1001.1 1001.0
06 11.08 СВ 7 30 км 3/3 1500 м
[]
+36.0 +5.3 15 +33 +37 жарко 999.1 999.0 +26.7
09 11.08 С 7 30 км 3/3 1500 м
[]
+37.5 +3.3 12 +34 +36 очень
жарко
996.6 997.0
12 11.08 С 11 30 км 1/1 1500 м
[]
+36.1 +3.4 13 +33 +33 жарко 996.4 919.5
18 11.08 С 6 30 км ?/? +30.5 +5.7 21 +29 +29 жарко 997.4 920.6 +37.8
21 11.08 С 5 30 км ?/? +27.8 +6.0 25 +27 +27 жарко 996.8 997.0
00 12.08 С 4 30 км 4/4
[]
+28.3 +5.8 24 +27 +27 жарко 997.6 1010.1
03 12.08 Ю 3 30 км 3/3
[]
+34.5 +4.1 15 +32 +38 жарко 996.7 997.0
06 12.08 З 5 30 км 3/3 1500 м
[]
+37.5 +3.3 12 +34 +41 очень
жарко
994.7 995.0 +25.9
09 12.08 З 6 30 км 1/1 1500 м
[]
+39.0 +3.2 11 +36 +39 очень
жарко
992.6 993.0
12 12.08 С 17
{20}
22 км 3/3 1500 м
[]
+33.8 +9.1 22 +33 +33 жарко 993.7 994.0
18 12.08 С 21
{28}
30 км ?/? +24.9 +10.8 41 +26 +26 жарко 996.7 997.0 +39.6
21 12.08 С 18 30 км н/о +23.1 +9.5 42 +25 +25 комфорт 997.7 998.0
00 13.08 С 17
{31}
30 км 9/9 1500 м
[]
+22.2 +10.0 46 +24 +24 комфорт 998.9 999.0
03 13.08 С 21
{32}
30 км 9/9 1500 м
[]
+23.0 +7.9 38 +24 +24 комфорт 1001.0 1001.0
06 13.08 С 23
{32}
30 км 9/9 1500 м
[]
+21.4 +9.0 45 +23 +23 комфорт 1002.5 1014.8 +21.4
09 13.08 С 25 30 км 9/9 1500 м
[]
+20.6 +10.4 52 +21 +21 комфорт 1002.1 1002.0
12 13.08 С 19
{32}
30 км 9/9 1500 м
[]
+18.3 +11.6 65 +17 +17 1004.7 924.1
18 13.08 С 19
{27}
30 км ?/? +20.1 +9.9 52 +20 +20 1008.8 1009.0 +24.8
21 13.08 С 17 30 км н/о +19.1 +6.9 45 +18 +18 1010.6 1011.0
00 14.08 С 12
{26}
30 км 5/5 1500 м
[]
+18.1 +6.9 48 +17 +17 1013.1 1013.0
03 14.08 С 9 30 км 3/3 1500 м
[]
+23.1 +2.6 26 +23 +23 комфорт 1014.0 1014.0
06 14.08 С 9
{17}
30 км 1/1 1500 м
[]
+27.2 -1.7 15 +25 +26 комфорт 1011.9 1012.0 +17.7
09 14.08 С 10 30 км 1/1 1500 м
[]
+29.4 +0.1 15 +27 +27 жарко 1010.3 1010.0
12 14.08 С 6 30 км ясно +28.4 +1.8 18 +26 +27 жарко 1010.6 1011.0
18 14.08 В 2 30 км ?/? +20.8 +10.0 50 +23 +23 комфорт 1013.7 1014.0 +29.6
21 14.08 СВ 5 30 км н/о +19.4 +9.6 53 +20 +20 1013.2 1013.0
00 15.08 С 3 30 км ясно +20.0 +9.6 51 +22 +22 комфорт 1014.3 1014.0

 

Местоположение метеостанции Sanjianfang (Китай): широта 43.22 долгота 91.73 высота над уровнем моря 792 м.

В архиве по умолчанию представлена погода в Sanjianfang за последнюю неделю. Архивные данные за месяц целиком и за предыдущие месяцы, начиная с января 2011 года, Вы можете получить, выбрав интересующий диапазон дат из раскрывающегося списка и нажав кнопку "Ввод!".


*Определитесь, кто Вы:
робот инопланетянин человек

Внимание! Время в таблицах - всемирное. Для получения местного времени необходимо прибавить поправку, которая в Sanjianfang равна 8 ч.

Смотрите также архив погоды в соседних городах и на ближайших метеорологических станциях:

Погода в Hami (Китай) (152 км)
Погода в Qitai (Китай) (195 км)
Погода в Turpan (Китай) (208 км)
Погода в Beita Shan (Китай) (258 км)
Погода в Naomaohu (Китай) (278 км)
Погода в Baitag (Монголия) (323 км)
Погода в Urumqi (Китай) (335 км)
Погода в Tonhil (Монголия) (385 км)
Погода в Jargalant (Монголия) (415 км)
Погода в Dunhuang (Китай) (420 км)

Пояснения к столбцам:

Ветер - указаны скорость ветра в м/с - средняя за 10 мин, порывы в срок и между сроками (в фигурных скобках) и направление, откуда дует ветер: С - северный, СВ - северо-восточный, В - восточный, ЮВ - юго-восточный, Ю - южный, ЮЗ - юго-западный, З - западный, СЗ - северо-западный.
Видимость - горизонтальная дальность видимости в метрах или километрах. При видимости от 1 до 10 км при отсутствии осадков обычно наблюдается дымка, при ухудшении видимости до 1 км и менее - туман. В сухую погоду видимость может ухудшаться дымом, пылью или мглою.
Явления - указаны атмосферные явления, наблюдавшиеся в срок или в последний час перед сроком; фигурными скобками обозначены явления, наблюдавшиеся между сроками (за 1-3 часа до срока); квадратными скобками обозначены град или гололедные отложения с указанием их диаметра в мм.
Облачность - указаны через наклонную черту общая и нижняя облачность в баллах и высота нижней границы облаков в метрах; квадратными скобками обозначены формы облаков: Ci - перистые, Cs - перисто-слоистые, Cc - перисто-кучевые, Ac - высококучевые, As - высокослоистые, Sc - слоисто-кучевые, Ns - слоисто-дождевые, Cu - кучевые, Cb - кучево-дождевые. Подробнее классификацию облаков см. в Атласе облаков (PDF).
T - Температура воздуха - температура, измеренная на высоте 2 м над землей.
Td - Температура точки росы - температура, при понижении до которой содержащийся в воздухе водяной пар достигнет насыщения.
f - Относительная влажность воздуха - влажноcть воздуха, измеренная на высоте 2 м над землей.
Te - Эффективная температура - температура, которую ощущает одетый по сезону человек в тени. Характеристика душности погоды. При расчете учитывается влияние влажности воздуха и скорости ветра на теплоощущения человека.
Tes - Эффективная температура на солнце - температура, которую ощущает человек, с поправкой на солнечный нагрев. Характеристика знойности погоды. Зависит от высоты солнца над горизонтом, облачности и скорости ветра. Ночью, в пасмурную погоду, а также при ветре 12 м/с и более поправка равна нулю.
P - Атмосферное давление - приведенное к уровню моря атмосферное давление.
Po - Атмосферное давление - измеренное на уровне метеостанции атмосферное давление.
Tmin - Минимальная температура - минимум температуры воздуха на высоте 2 м над землей.
Tmax - Максимальная температура - максимум температуры воздуха на высоте 2 м над землей.
R - Количество осадков - Количество выпавших осадков за период времени, мм. При наведении курсора мыши на число - период времени, за который выпало указанное количество осадков.
R24 - Количество осадков - Количество выпавших осадков за 24 часа, мм.
S - Снежный покров - Высота снежного покрова, см. При наведении курсора мыши на число - состояние снежного покрова и степень покрытия местности в баллах.